KRE228 SKPE-SEQM

Flight info

Callsign KRE228
Flight time N/A
Altitude 32000
Route TOROL1H TOROL DCT GAVAD DCT PAJOL
Aircraft B722/M-SDFGHRWY/C

Departure

Time 2026-05-05 22:48
Airport Matecaña International Airport (SKPE)

Arrival

Time N/A
Airport Mariscal Sucre International Airport (SEQM)
Time Latitude Longitude Altitude Speed Heading
2026-05-05 22:19 4.81520 -75.73635 4430 ft 0 kts 342°
2026-05-05 22:34 4.81516 -75.73634 4431 ft 3 kts 345°
2026-05-05 22:34 4.81498 -75.73635 4432 ft 4 kts 62°
2026-05-05 22:34 4.81489 -75.73660 4434 ft 3 kts 72°
2026-05-05 22:34 4.81487 -75.73668 4435 ft 0 kts 72°
2026-05-05 22:42 4.81489 -75.73660 4433 ft 4 kts 77°
2026-05-05 22:42 4.81496 -75.73618 4431 ft 8 kts 81°
2026-05-05 22:43 4.81506 -75.73559 4431 ft 9 kts 81°
2026-05-05 22:43 4.81509 -75.73502 4432 ft 7 kts 111°
2026-05-05 22:43 4.81466 -75.73470 4434 ft 9 kts 155°
2026-05-05 22:43 4.81437 -75.73440 4432 ft 6 kts 94°
2026-05-05 22:44 4.81449 -75.73386 4433 ft 10 kts 72°
2026-05-05 22:44 4.81471 -75.73312 4432 ft 12 kts 72°
2026-05-05 22:44 4.81500 -75.73221 4432 ft 14 kts 72°
2026-05-05 22:44 4.81531 -75.73120 4432 ft 14 kts 73°
2026-05-05 22:45 4.81550 -75.73061 4433 ft 4 kts 34°
2026-05-05 22:45 4.81561 -75.73061 4431 ft 0 kts 313°
2026-05-05 22:45 4.81562 -75.73065 4431 ft 1 kts 288°
2026-05-05 22:45 4.81557 -75.73085 4433 ft 4 kts 237°
2026-05-05 22:46 4.81542 -75.73112 4432 ft 4 kts 249°
2026-05-05 22:46 4.81541 -75.73115 4433 ft 0 kts 250°
2026-05-05 22:47 4.81526 -75.73158 4433 ft 28 kts 250°
2026-05-05 22:47 4.81403 -75.73537 4432 ft 85 kts 252°
2026-05-05 22:47 4.81164 -75.74273 4408 ft 135 kts 252°
2026-05-05 22:47 4.80847 -75.75253 4585 ft 153 kts 252°
2026-05-05 22:48 4.80524 -75.76267 5077 ft 153 kts 252°
2026-05-05 22:48 4.80197 -75.77276 5536 ft 151 kts 251°
2026-05-05 22:48 4.79857 -75.78306 5810 ft 167 kts 251°
2026-05-05 22:48 4.79474 -75.79498 5998 ft 191 kts 253°
2026-05-05 22:49 4.78977 -75.80828 6145 ft 219 kts 240°
2026-05-05 22:49 4.77810 -75.81868 6446 ft 234 kts 207°
2026-05-05 22:49 4.76209 -75.82129 6708 ft 238 kts 175°
2026-05-05 22:49 4.74571 -75.81734 6969 ft 251 kts 161°
2026-05-05 22:50 4.72890 -75.81091 7239 ft 266 kts 160°
2026-05-05 22:50 4.71047 -75.80693 7493 ft 280 kts 180°
2026-05-05 22:50 4.69122 -75.81023 7989 ft 281 kts 199°
2026-05-05 22:50 4.67327 -75.81812 8552 ft 283 kts 208°
2026-05-05 22:51 4.65619 -75.82826 9096 ft 288 kts 210°
2026-05-05 22:51 4.63874 -75.83827 9827 ft 289 kts 207°
2026-05-05 22:51 4.62083 -75.84756 10437 ft 292 kts 205°
2026-05-05 22:51 4.60270 -75.85697 11050 ft 295 kts 206°
2026-05-05 22:52 4.58453 -75.86676 11673 ft 298 kts 206°
2026-05-05 22:52 4.56609 -75.87681 12140 ft 309 kts 207°
2026-05-05 22:52 4.54720 -75.88845 12372 ft 329 kts 212°
2026-05-05 22:52 4.52817 -75.90216 12611 ft 346 kts 214°
2026-05-05 22:53 4.50825 -75.91642 13131 ft 353 kts 212°
2026-05-05 22:53 4.48766 -75.93024 13856 ft 358 kts 211°
2026-05-05 22:53 4.46682 -75.94413 14547 ft 362 kts 212°
2026-05-05 22:53 4.44658 -75.95945 15232 ft 368 kts 218°
2026-05-05 22:54 4.42798 -75.97687 15948 ft 372 kts 223°
2026-05-05 22:54 4.40957 -75.99525 16623 ft 376 kts 222°
2026-05-05 22:54 4.39008 -76.01299 17182 ft 381 kts 219°
2026-05-05 22:54 4.36991 -76.03037 17629 ft 385 kts 219°
2026-05-05 22:55 4.34972 -76.04854 18242 ft 392 kts 221°
2026-05-05 22:55 4.32975 -76.06713 18956 ft 393 kts 221°
2026-05-05 22:55 4.30947 -76.08565 19498 ft 397 kts 220°
2026-05-05 22:55 4.28876 -76.10419 20016 ft 402 kts 220°
2026-05-05 22:56 4.26728 -76.12216 20566 ft 403 kts 213°
2026-05-05 22:56 4.24289 -76.13596 21121 ft 404 kts 205°
2026-05-05 22:56 4.21713 -76.14747 21613 ft 407 kts 200°
2026-05-05 22:56 4.19075 -76.15782 22215 ft 408 kts 200°
2026-05-05 22:57 4.16454 -76.16910 22706 ft 412 kts 203°
2026-05-05 22:57 4.13841 -76.18136 23218 ft 416 kts 204°
2026-05-05 22:57 4.11197 -76.19331 23686 ft 418 kts 202°
2026-05-05 22:57 4.08505 -76.20481 24095 ft 421 kts 201°
2026-05-05 22:58 4.05843 -76.21635 24470 ft 424 kts 202°
2026-05-05 22:58 4.03140 -76.22847 24844 ft 427 kts 202°
2026-05-05 22:58 4.00421 -76.24063 25237 ft 429 kts 202°
2026-05-05 22:58 3.97676 -76.25265 25635 ft 432 kts 202°
2026-05-05 22:59 3.94908 -76.26476 26014 ft 434 kts 202°
2026-05-05 22:59 3.92140 -76.27703 26389 ft 437 kts 202°
2026-05-05 22:59 3.89356 -76.28937 26766 ft 439 kts 202°
2026-05-05 22:59 3.86555 -76.30171 27114 ft 441 kts 202°
2026-05-05 23:00 3.80903 -76.32661 27796 ft 446 kts 202°
2026-05-05 23:00 3.78058 -76.33919 28125 ft 448 kts 202°
2026-05-05 23:00 3.75196 -76.35181 28447 ft 450 kts 202°
2026-05-05 23:01 3.72319 -76.36449 28750 ft 453 kts 202°
2026-05-05 23:01 3.69429 -76.37722 29075 ft 455 kts 202°
2026-05-05 23:01 3.67509 -76.38570 29229 ft 457 kts 202°
2026-05-05 23:01 3.64590 -76.39858 29522 ft 460 kts 202°
2026-05-05 23:02 3.61659 -76.41149 29903 ft 461 kts 202°
2026-05-05 23:02 3.58707 -76.42450 30156 ft 464 kts 202°
2026-05-05 23:02 3.55745 -76.43757 30413 ft 466 kts 202°
2026-05-05 23:02 3.52771 -76.45069 30678 ft 467 kts 202°
2026-05-05 23:03 3.49789 -76.46383 30987 ft 469 kts 202°
2026-05-05 23:03 3.46795 -76.47702 31234 ft 471 kts 202°
2026-05-05 23:03 3.43828 -76.49011 31453 ft 472 kts 202°
2026-05-05 23:03 3.40812 -76.50340 31685 ft 474 kts 202°
2026-05-05 23:04 3.37793 -76.51670 31883 ft 476 kts 202°
2026-05-05 23:04 3.34756 -76.53008 32031 ft 479 kts 202°
2026-05-05 23:04 3.28606 -76.55719 32038 ft 474 kts 202°
2026-05-05 23:05 3.22605 -76.58362 32041 ft 474 kts 202°
2026-05-05 23:05 3.16550 -76.61029 32041 ft 474 kts 202°
2026-05-05 23:06 3.10520 -76.63686 32062 ft 474 kts 202°
2026-05-05 23:06 3.04479 -76.66345 32063 ft 474 kts 202°
2026-05-05 23:07 2.98435 -76.69008 32060 ft 474 kts 202°
2026-05-05 23:07 2.92436 -76.71648 32073 ft 474 kts 202°
2026-05-05 23:08 2.86395 -76.74309 32073 ft 475 kts 202°